When you browse on this site, cookies collect data to enhance your experience and personalize the content and advertising you see.
Visit our Privacy Policy to learn more. By continuing to use the site, you agree to this use of cookies and data.
  • In Österreich
  • Länderverzeichnis
  • Für 7 Tage
  • Wassertemperatur
  • Satellitenkarten
  • Wetterkarte
  • News
  • Widgets
  • user-avatar
    Anmelden

    Stündliche Wetter Eisenstadt

    Heute, 17 Juli, Mittwoch

    Zeit Temperatur Niederschläge Wind Luftdruck Luftfeuchtigkeit
    00:00 +15°C° 0 mm 1 m/S 721 mmHg 77%
    01:00 +15°C° 0 mm 1 m/S 721 mmHg 78%
    02:00 +15°C° 0 mm 1 m/S 721 mmHg 80%
    03:00 +14°C° 0 mm 1 m/S 721 mmHg 83%
    04:00 +14°C° 0 mm 1 m/S 721 mmHg 86%
    05:00 +15°C° 0 mm 1 m/S 721 mmHg 80%
    06:00 +18°C° 0 mm 1 m/S 721 mmHg 74%
    07:00 +20°C° 0 mm 1 m/S 721 mmHg 68%
    08:00 +21°C° 0 mm 1 m/S 721 mmHg 63%
    09:00 +23°C° 0 mm 1 m/S 722 mmHg 59%
    10:00 +24°C° 0 mm 1 m/S 722 mmHg 54%
    11:00 +25°C° 0 mm 1 m/S 721 mmHg 53%
    12:00 +25°C° 0 mm 1 m/S 721 mmHg 53%
    13:00 +26°C° 0 mm 1 m/S 721 mmHg 52%
    14:00 +25°C° 0.5 mm 1 m/S 720 mmHg 56%
    15:00 +25°C° 0.5 mm 1 m/S 720 mmHg 60%
    16:00 +25°C° 0.5 mm 1 m/S 720 mmHg 63%
    17:00 +24°C° 0.3 mm 1 m/S 720 mmHg 68%
    18:00 +23°C° 0.3 mm 1 m/S 720 mmHg 72%
    19:00 +19°C° 0.3 mm 0 m/S 719 mmHg 77%
    20:00 +20°C° 1 mm 1 m/S 719 mmHg 81%
    21:00 +19°C° 1 mm 1 m/S 720 mmHg 85%
    22:00 +18°C° 1 mm 1 m/S 720 mmHg 89%
    23:00 +16°C° 0.2 mm 1 m/S 720 mmHg 89%

    Morgen, 18 Juli, Donnerstag

    Zeit Temperatur Niederschläge Wind Luftdruck Luftfeuchtigkeit
    00:00 +16°C° 0.2 mm 1 m/S 720 mmHg 89%
    01:00 +16°C° 0.2 mm 1 m/S 720 mmHg 90%
    02:00 +16°C° 0.2 mm 1 m/S 720 mmHg 90%
    03:00 +15°C° 0.2 mm 1 m/S 720 mmHg 91%
    04:00 +15°C° 0.2 mm 1 m/S 719 mmHg 91%
    05:00 +16°C° 0 mm 1 m/S 720 mmHg 88%
    06:00 +18°C° 0 mm 1 m/S 720 mmHg 84%
    07:00 +20°C° 0 mm 1 m/S 720 mmHg 81%
    08:00 +21°C° 0.1 mm 1 m/S 720 mmHg 75%
    09:00 +22°C° 0.1 mm 1 m/S 721 mmHg 68%
    10:00 +24°C° 0.1 mm 1 m/S 721 mmHg 62%
    11:00 +25°C° 0.4 mm 1 m/S 721 mmHg 59%
    12:00 +26°C° 0.4 mm 1 m/S 721 mmHg 56%
    13:00 +27°C° 0.4 mm 1 m/S 720 mmHg 53%
    14:00 +27°C° 0.5 mm 1 m/S 720 mmHg 52%
    15:00 +26°C° 0.5 mm 1 m/S 720 mmHg 51%
    16:00 +26°C° 0.5 mm 1 m/S 720 mmHg 50%
    17:00 +25°C° 0.1 mm 1 m/S 720 mmHg 57%
    18:00 +23°C° 0.1 mm 1 m/S 720 mmHg 64%
    19:00 +21°C° 0.1 mm 2 m/S 720 mmHg 71%
    20:00 +20°C° 0 mm 2 m/S 720 mmHg 71%
    21:00 +20°C° 0 mm 1 m/S 721 mmHg 72%
    22:00 +19°C° 0 mm 1 m/S 721 mmHg 72%
    23:00 +19°C° 0 mm 1 m/S 721 mmHg 71%

    übermorgen, 19 Juli, Freitag

    Zeit Temperatur Niederschläge Wind Luftdruck Luftfeuchtigkeit
    00:00 +18°C° 0 mm 1 m/S 721 mmHg 71%
    01:00 +18°C° 0 mm 1 m/S 721 mmHg 71%
    02:00 +18°C° 0 mm 1 m/S 721 mmHg 70%
    03:00 +18°C° 0 mm 1 m/S 721 mmHg 69%
    04:00 +18°C° 0 mm 1 m/S 721 mmHg 68%
    05:00 +19°C° 0 mm 1 m/S 722 mmHg 66%
    06:00 +19°C° 0 mm 0 m/S 722 mmHg 63%
    07:00 +20°C° 0 mm 0 m/S 723 mmHg 60%
    08:00 +24°C° 0 mm 1 m/S 723 mmHg 56%
    09:00 +25°C° 0 mm 1 m/S 723 mmHg 52%
    10:00 +27°C° 0 mm 1 m/S 723 mmHg 48%
    11:00 +27°C° 0.2 mm 1 m/S 723 mmHg 48%
    12:00 +27°C° 0.2 mm 1 m/S 723 mmHg 48%
    13:00 +28°C° 0.2 mm 2 m/S 722 mmHg 47%
    14:00 +27°C° 0.2 mm 1 m/S 722 mmHg 49%
    15:00 +27°C° 0.2 mm 1 m/S 722 mmHg 51%
    16:00 +27°C° 0.2 mm 1 m/S 722 mmHg 52%
    17:00 +26°C° 0.1 mm 1 m/S 722 mmHg 57%
    18:00 +25°C° 0.1 mm 1 m/S 722 mmHg 63%
    19:00 +23°C° 0.1 mm 1 m/S 722 mmHg 68%
    20:00 +22°C° 0 mm 1 m/S 722 mmHg 70%
    21:00 +21°C° 0 mm 1 m/S 722 mmHg 72%
    22:00 +20°C° 0 mm 1 m/S 722 mmHg 74%
    23:00 +20°C° 0 mm 1 m/S 722 mmHg 76%

    20 Juli, Samstag

    Zeit Temperatur Niederschläge Wind Luftdruck Luftfeuchtigkeit
    00:00 +19°C° 0 mm 1 m/S 722 mmHg 77%
    01:00 +19°C° 0 mm 1 m/S 722 mmHg 79%
    02:00 +19°C° 0 mm 1 m/S 722 mmHg 79%
    03:00 +19°C° 0 mm 1 m/S 722 mmHg 80%
    04:00 +18°C° 0 mm 1 m/S 723 mmHg 80%
    05:00 +20°C° 0 mm 1 m/S 723 mmHg 76%
    06:00 +21°C° 0 mm 1 m/S 723 mmHg 73%
    07:00 +23°C° 0 mm 1 m/S 723 mmHg 69%
    08:00 +24°C° 0 mm 1 m/S 723 mmHg 63%
    09:00 +26°C° 0 mm 1 m/S 724 mmHg 57%
    10:00 +27°C° 0 mm 1 m/S 724 mmHg 51%
    11:00 +28°C° 0 mm 2 m/S 724 mmHg 49%
    12:00 +29°C° 0 mm 2 m/S 724 mmHg 46%
    13:00 +30°C° 0 mm 3 m/S 723 mmHg 43%
    14:00 +30°C° 0 mm 3 m/S 723 mmHg 44%
    15:00 +30°C° 0 mm 3 m/S 723 mmHg 45%
    16:00 +30°C° 0 mm 3 m/S 723 mmHg 46%
    17:00 +29°C° 0 mm 2 m/S 723 mmHg 53%
    18:00 +27°C° 0 mm 2 m/S 723 mmHg 60%
    19:00 +26°C° 0 mm 1 m/S 723 mmHg 68%
    20:00 +24°C° 0.1 mm 1 m/S 723 mmHg 71%
    21:00 +23°C° 0.1 mm 1 m/S 723 mmHg 75%
    22:00 +22°C° 0.1 mm 1 m/S 723 mmHg 79%
    23:00 +21°C° 0.1 mm 2 m/S 723 mmHg 79%

    21 Juli, Sonntag

    Zeit Temperatur Niederschläge Wind Luftdruck Luftfeuchtigkeit
    00:00 +21°C° 0.1 mm 2 m/S 724 mmHg 80%
    01:00 +20°C° 0.1 mm 2 m/S 724 mmHg 80%
    02:00 +20°C° 0 mm 2 m/S 724 mmHg 81%
    03:00 +19°C° 0 mm 2 m/S 723 mmHg 82%
    04:00 +19°C° 0 mm 1 m/S 723 mmHg 83%
    05:00 +21°C° 0 mm 1 m/S 724 mmHg 78%
    06:00 +22°C° 0 mm 1 m/S 724 mmHg 74%
    07:00 +24°C° 0 mm 1 m/S 724 mmHg 69%
    08:00 +26°C° 0 mm 1 m/S 725 mmHg 61%
    09:00 +28°C° 0 mm 1 m/S 725 mmHg 52%
    10:00 +30°C° 0 mm 1 m/S 725 mmHg 44%
    11:00 +30°C° 0 mm 1 m/S 725 mmHg 41%
    12:00 +31°C° 0 mm 2 m/S 725 mmHg 39%
    13:00 +32°C° 0 mm 2 m/S 725 mmHg 36%
    14:00 +32°C° 0 mm 2 m/S 725 mmHg 38%
    15:00 +31°C° 0 mm 2 m/S 725 mmHg 41%
    16:00 +31°C° 0 mm 2 m/S 725 mmHg 44%
    17:00 +29°C° 0.2 mm 2 m/S 725 mmHg 52%
    18:00 +27°C° 0.2 mm 2 m/S 725 mmHg 61%
    19:00 +25°C° 0.2 mm 2 m/S 725 mmHg 69%
    20:00 +24°C° 0.2 mm 2 m/S 725 mmHg 73%
    21:00 +23°C° 0.2 mm 2 m/S 725 mmHg 76%
    22:00 +20°C° 0.2 mm 2 m/S 726 mmHg 80%
    23:00 +20°C° 0 mm 2 m/S 726 mmHg 80%

    22 Juli, Montag

    Zeit Temperatur Niederschläge Wind Luftdruck Luftfeuchtigkeit
    00:00 +20°C° 0 mm 2 m/S 726 mmHg 79%
    01:00 +20°C° 0 mm 2 m/S 726 mmHg 79%
    02:00 +20°C° 0 mm 2 m/S 726 mmHg 80%
    03:00 +20°C° 0 mm 2 m/S 726 mmHg 81%
    04:00 +19°C° 0 mm 2 m/S 726 mmHg 82%
    05:00 +20°C° 0 mm 2 m/S 726 mmHg 77%
    06:00 +21°C° 0 mm 2 m/S 726 mmHg 72%
    07:00 +23°C° 0 mm 2 m/S 727 mmHg 67%
    08:00 +24°C° 0.2 mm 2 m/S 727 mmHg 62%
    09:00 +26°C° 0.2 mm 2 m/S 727 mmHg 58%
    10:00 +27°C° 0.2 mm 2 m/S 727 mmHg 53%
    11:00 +27°C° 0.5 mm 2 m/S 727 mmHg 52%
    12:00 +28°C° 0.5 mm 2 m/S 727 mmHg 51%
    13:00 +28°C° 0.5 mm 1 m/S 726 mmHg 51%
    14:00 +28°C° 0.2 mm 2 m/S 726 mmHg 50%
    15:00 +28°C° 0.2 mm 2 m/S 726 mmHg 50%
    16:00 +28°C° 0.2 mm 2 m/S 725 mmHg 50%
    17:00 +27°C° 0 mm 2 m/S 725 mmHg 55%
    18:00 +25°C° 0 mm 1 m/S 725 mmHg 60%
    19:00 +24°C° 0 mm 1 m/S 725 mmHg 65%
    20:00 +23°C° 0 mm 1 m/S 725 mmHg 66%
    21:00 +22°C° 0 mm 1 m/S 725 mmHg 67%
    22:00 +19°C° 0 mm 2 m/S 725 mmHg 69%
    23:00 +19°C° 0 mm 2 m/S 725 mmHg 71%
    Mehr zeigen